EW7239 Weather Reports


time (UTC)temp
C
wind
direction
speed
KPH
gust
KPH
rain 1hr
cm
rain 24hr
cm
rain mn
cm
humidity
%
barometer
mb
20260902060823 20 236 4.8 9.7 0.00 0.00 0.00 72 1015.9
20260902060320 20 236 4.8 6.4 0.00 0.00 0.00 72 1015.9
20260902060052 20 236 4.8 11.3 0.00 0.00 0.00 71 1015.9
20260902055319 20 236 3.2 11.3 0.00 0.00 0.00 71 1015.8
20260902054818 20 240 3.2 6.4 0.00 0.00 0.00 70 1015.9
20260902054318 20 240 3.2 6.4 0.00 0.00 0.00 70 1015.9
20260902053820 20 240 3.2 8.0 0.00 0.00 0.00 70 1015.7
20260902053318 20 240 3.2 8.0 0.00 0.00 0.00 70 1015.7
20260902052814 20 240 3.2 8.0 0.00 0.00 0.00 69 1015.8
20260902052314 20 240 4.8 8.0 0.00 0.00 0.00 69 1015.8
20260902052045 20 240 3.2 6.4 0.00 0.00 0.00 68 1015.8
20260902051310 20 240 3.2 4.8 0.00 0.00 0.00 68 1015.7
20260902050818 20 240 3.2 8.0 0.00 0.00 0.00 67 1015.8
20260902050541 21 240 3.2 8.0 0.00 0.00 0.00 67 1015.7
20260902045810 21 240 3.2 8.0 0.00 0.00 0.00 67 1015.6
20260902045310 21 240 4.8 9.7 0.00 0.00 0.00 66 1015.6
20260902044809 21 240 4.8 9.7 0.00 0.00 0.00 65 1015.6
20260902044539 21 240 4.8 11.3 0.00 0.00 0.00 65 1015.5
20260902043805 21 240 4.8 12.9 0.00 0.00 0.00 64 1015.4
20260902043304 21 238 4.8 12.9 0.00 0.00 0.00 64 1015.3
20260902042804 21 236 4.8 11.3 0.00 0.00 0.00 64 1015.3
20260902042535 21 236 4.8 11.3 0.00 0.00 0.00 64 1015.2
20260902041800 21 235 6.4 11.3 0.00 0.00 0.00 64 1015.1
20260902041531 22 235 6.4 16.1 0.00 0.00 0.00 64 1015.0
20260902040800 22 235 6.4 16.1 0.00 0.00 0.00 63 1014.9
20260902040307 22 234 6.4 12.9 0.00 0.00 0.00 63 1014.8
20260902035800 22 234 6.4 16.1 0.00 0.00 0.00 62 1014.8
20260902035300 22 234 6.4 16.1 0.00 0.00 0.00 62 1014.6
20260902035038 22 235 6.4 12.9 0.00 0.00 0.00 62 1014.6
20260902034532 22 240 6.4 12.9 0.00 0.00 0.00 61 1014.4
20260902033531 23 233 9.7 19.3 0.00 0.00 0.00 60 1014.2
20260902032306 23 221 9.7 16.1 0.00 0.00 0.00 59 1014.1
20260902031752 23 225 9.7 19.3 0.00 0.00 0.00 59 1014.1
20260902031251 23 225 9.7 19.3 0.00 0.00 0.00 59 1014.0
20260902030751 23 223 9.7 12.9 0.00 0.00 0.00 58 1014.0
20260902030522 23 229 9.7 14.5 0.00 0.00 0.00 57 1013.9
20260902025751 23 221 9.7 14.5 0.00 0.00 0.00 56 1013.9
20260902025250 23 223 9.7 14.5 0.00 0.00 0.00 55 1013.9
20260902024747 23 219 9.7 19.3 0.00 0.00 0.00 54 1013.9
20260902024247 24 214 9.7 20.9 0.00 0.00 0.00 53 1013.8
20260902023744 24 221 9.7 20.9 0.00 0.00 0.00 51 1013.7
20260902022743 25 221 9.7 19.3 0.00 0.00 0.00 46 1013.6
20260902022509 25 225 11.3 22.5 0.00 0.00 0.00 44 1013.6
20260902021740 25 219 12.9 22.5 0.00 0.00 0.00 42 1013.6
20260902021239 25 228 12.9 22.5 0.00 0.00 0.00 40 1013.6
20260902021011 26 217 11.3 22.5 0.00 0.00 0.00 37 1013.6
20260902020238 26 219 9.7 14.5 0.00 0.00 0.00 34 1013.6
20260902015740 26 212 9.7 16.1 0.00 0.00 0.00 32 1013.6
20260902015237 26 219 9.7 16.1 0.00 0.00 0.00 32 1013.5
20260902015008 27 227 9.7 17.7 0.00 0.00 0.00 32 1013.5
20260902014237 27 208 9.7 17.7 0.00 0.00 0.00 31 1013.5
20260902013738 27 221 11.3 17.7 0.00 0.00 0.00 31 1013.6
20260902013237 27 217 12.9 20.9 0.00 0.00 0.00 31 1013.5
20260902012737 27 214 12.9 20.9 0.00 0.00 0.00 31 1013.5
20260902012237 27 221 12.9 27.4 0.00 0.00 0.00 31 1013.5
20260902011737 27 234 12.9 27.4 0.00 0.00 0.00 30 1013.5
20260902011236 28 226 12.9 22.5 0.00 0.00 0.00 30 1013.5
20260902010738 28 220 12.9 24.1 0.00 0.00 0.00 30 1013.6
20260902010236 28 215 14.5 24.1 0.00 0.00 0.00 28 1013.6
20260902005738 28 219 12.9 24.1 0.00 0.00 0.00 28 1013.7
20260902005236 28 225 11.3 20.9 0.00 0.00 0.00 29 1013.7
20260902005007 28 223 12.9 22.5 0.00 0.00 0.00 29 1013.7
20260902004237 28 223 12.9 22.5 0.00 0.00 0.00 28 1013.8
20260902003737 29 234 11.3 20.9 0.00 0.00 0.00 28 1013.8
20260902003234 29 202 12.9 20.9 0.00 0.00 0.00 28 1013.8
20260902002735 29 192 12.9 22.5 0.00 0.00 0.00 28 1013.8
20260902002235 29 209 12.9 22.5 0.00 0.00 0.00 28 1013.8
20260902001735 29 219 12.9 22.5 0.00 0.00 0.00 28 1013.8
20260902001505 30 209 12.9 24.1 0.00 0.00 0.00 27 1013.8
20260902000735 30 214 12.9 24.1 0.00 0.00 0.00 27 1013.9
20260902000235 30 212 12.9 25.7 0.00 0.00 0.00 26 1013.8
20260901235735 30 211 12.9 25.7 0.00 0.00 0.00 25 1013.8
20260901235235 30 200 12.9 24.1 0.00 0.00 0.00 25 1013.8
20260901234736 30 219 12.9 24.1 0.00 0.00 0.00 25 1013.8
20260901234230 30 202 12.9 25.7 0.00 0.00 0.00 25 1013.7
20260901233743 31 215 11.3 25.7 0.00 0.00 0.00 25 1013.8
20260901233231 31 213 11.3 22.5 0.00 0.00 0.00 25 1013.7
20260901232730 31 232 12.9 24.1 0.00 0.00 0.00 25 1013.7
20260901232226 31 215 12.9 24.1 0.00 0.00 0.00 24 1013.8
20260901231727 31 211 11.3 22.5 0.00 0.00 0.00 24 1013.7
20260901231228 31 223 11.3 19.3 0.00 0.00 0.00 23 1013.8
20260901230726 31 225 11.3 22.5 0.00 0.00 0.00 24 1013.7
20260901230227 31 223 11.3 22.5 0.00 0.00 0.00 24 1013.7
20260901225726 31 224 12.9 22.5 0.00 0.00 0.00 25 1013.8
20260901225454 31 222 12.9 25.7 0.00 0.00 0.00 24 1013.8
20260901224723 31 213 14.5 25.7 0.00 0.00 0.00 25 1013.8
20260901224218 31 222 14.5 25.7 0.00 0.00 0.00 26 1013.8
20260901223720 31 224 12.9 25.7 0.00 0.00 0.00 27 1013.8
20260901223220 32 203 11.3 25.7 0.00 0.00 0.00 27 1013.9
20260901222718 31 209 12.9 22.5 0.00 0.00 0.00 29 1013.8
20260901222217 31 183 12.9 22.5 0.00 0.00 0.00 29 1013.8
20260901221716 32 285 12.9 27.4 0.00 0.00 0.00 29 1013.9
20260901221217 32 209 11.3 27.4 0.00 0.00 0.00 30 1013.9
20260901220716 32 212 11.3 24.1 0.00 0.00 0.00 29 1013.9
20260901220231 32 207 12.9 24.1 0.00 0.00 0.00 28 1014.0
20260901215717 32 215 12.9 27.4 0.00 0.00 0.00 29 1014.0
20260901215217 32 215 11.3 27.4 0.00 0.00 0.00 27 1014.1
20260901214712 32 238 9.7 19.3 0.00 0.00 0.00 26 1014.2
20260901214211 32 215 11.3 24.1 0.00 0.00 0.00 26 1014.1
20260901213943 32 220 12.9 24.1 0.00 0.00 0.00 26 1014.2
20260901213211 32 219 12.9 25.7 0.00 0.00 0.00 25 1014.1
20260901212711 32 224 12.9 25.7 0.00 0.00 0.00 24 1014.3
20260901212209 32 198 11.3 20.9 0.00 0.00 0.00 23 1014.3
20260901211706 32 219 11.3 20.9 0.00 0.00 0.00 21 1014.3
20260901211205 32 232 9.7 20.9 0.00 0.00 0.00 20 1014.4
20260901210704 32 221 8.0 20.9 0.00 0.00 0.00 19 1014.4
20260901210204 32 226 11.3 20.9 0.00 0.00 0.00 18 1014.4
20260901205704 32 228 12.9 22.5 0.00 0.00 0.00 18 1014.5
20260901205203 32 252 9.7 22.5 0.00 0.00 0.00 19 1014.4
20260901204703 32 224 9.7 22.5 0.00 0.00 0.00 20 1014.5
20260901203705 32 213 9.7 22.5 0.00 0.00 0.00 21 1014.5
20260901203434 32 224 8.0 22.5 0.00 0.00 0.00 20 1014.6
20260901202934 32 185 8.0 17.7 0.00 0.00 0.00 22 1014.7
20260901202203 32 225 8.0 14.5 0.00 0.00 0.00 23 1014.7
20260901201932 32 198 9.7 17.7 0.00 0.00 0.00 24 1014.8
20260901201200 32 216 8.0 17.7 0.00 0.00 0.00 25 1014.9
20260901200702 32 225 6.4 14.5 0.00 0.00 0.00 25 1015.0
20260901200200 31 221 6.4 19.3 0.00 0.00 0.00 25 1015.0
20260901195702 31 226 8.0 19.3 0.00 0.00 0.00 27 1015.2
20260901195428 31 231 6.4 16.1 0.00 0.00 0.00 30 1015.2
20260901194657 31 215 6.4 14.5 0.00 0.00 0.00 30 1015.3
20260901194157 30 216 6.4 14.5 0.00 0.00 0.00 31 1015.3
20260901193652 30 214 6.4 11.3 0.00 0.00 0.00 32 1015.3
20260901193151 30 234 4.8 11.3 0.00 0.00 0.00 31 1015.5
20260901192649 30 248 6.4 12.9 0.00 0.00 0.00 31 1015.6
20260901192421 30 244 4.8 12.9 0.00 0.00 0.00 31 1015.7
20260901191649 29 221 4.8 12.9 0.00 0.00 0.00 36 1015.7
20260901191149 29 223 6.4 12.9 0.00 0.00 0.00 34 1015.7
20260901190649 28 231 6.4 12.9 0.00 0.00 0.00 33 1015.8
20260901190149 29 231 8.0 12.9 0.00 0.00 0.00 32 1015.8
20260901185649 29 231 8.0 14.5 0.00 0.00 0.00 31 1015.8
20260901185148 29 257 8.0 14.5 0.00 0.00 0.00 34 1015.8
20260901184644 28 236 6.4 12.9 0.00 0.00 0.00 38 1015.9
20260901184148 28 217 6.4 12.9 0.00 0.00 0.00 37 1015.9
20260901183642 28 217 6.4 12.9 0.00 0.00 0.00 40 1016.0
20260901183141 27 225 6.4 11.3 0.00 0.00 0.00 42 1016.1
20260901182641 27 225 6.4 11.3 0.00 0.00 0.00 45 1016.2
20260901182138 27 215 6.4 9.7 0.00 0.00 0.00 46 1016.2
20260901181639 27 213 6.4 12.9 0.00 0.00 0.00 47 1016.2
20260901181140 27 214 4.8 12.9 0.00 0.00 0.00 44 1016.2
20260901180640 27 211 4.8 11.3 0.00 0.00 0.00 49 1016.2
20260901180139 27 232 3.2 12.9 0.00 0.00 0.00 51 1016.2
20260901175639 26 233 3.2 12.9 0.00 0.00 0.00 55 1016.3
20260901175139 26 223 3.2 8.0 0.00 0.00 0.00 55 1016.3
20260901174909 26 223 3.2 8.0 0.00 0.00 0.00 56 1016.3
20260901174136 26 223 4.8 9.7 0.00 0.00 0.00 57 1016.3
20260901173637 25 223 3.2 9.7 0.00 0.00 0.00 58 1016.3
20260901173138 25 223 1.6 6.4 0.00 0.00 0.00 59 1016.3
20260901172636 25 223 3.2 6.4 0.00 0.00 0.00 61 1016.3
20260901172137 25 223 3.2 8.0 0.00 0.00 0.00 62 1016.2
20260901171637 25 223 3.2 8.0 0.00 0.00 0.00 63 1016.2
20260901171137 25 223 3.2 8.0 0.00 0.00 0.00 64 1016.2
20260901170907 24 223 3.2 8.0 0.00 0.00 0.00 65 1016.2
20260901170140 24 223 1.6 6.4 0.00 0.00 0.00 68 1016.1
20260901165636 23 223 3.2 6.4 0.00 0.00 0.00 69 1016.2
20260901165138 23 223 3.2 4.8 0.00 0.00 0.00 71 1016.2
20260901164636 22 223 3.2 6.4 0.00 0.00 0.00 72 1016.2
20260901164137 22 223 3.2 6.4 0.00 0.00 0.00 73 1016.2
20260901163638 22 223 1.6 6.4 0.00 0.00 0.00 75 1016.2
20260901163136 22 223 0.0 1.6 0.00 0.00 0.00 77 1016.1
20260901162636 21 223 0.0 0.0 0.00 0.00 0.00 78 1016.1
20260901162136 21 223 0.0 0.0 0.00 0.00 0.00 79 1016.1
20260901161638 21 223 0.0 0.0 0.00 0.00 0.00 80 1016.0
20260901161136 21 223 0.0 0.0 0.00 0.00 0.00 81 1016.0
20260901160638 21 223 0.0 0.0 0.00 0.00 0.00 82 1016.1
20260901160136 20 223 1.6 6.4 0.00 0.00 0.00 83 1016.0
20260901155635 20 223 1.6 6.4 0.00 0.00 0.00 83 1016.0
20260901155407 20 223 0.0 3.2 0.00 0.00 0.00 84 1016.1
20260901154634 20 223 1.6 8.0 0.00 0.00 0.00 84 1016.1
20260901154132 20 223 1.6 8.0 0.00 0.00 0.00 84 1016.2
20260901153632 19 223 0.0 4.8 0.00 0.00 0.00 84 1016.1
20260901153401 19 223 0.0 4.8 0.00 0.00 0.00 84 1016.1
20260901152628 19 223 1.6 6.4 0.00 0.00 0.00 84 1016.0
20260901152140 18 223 1.6 6.4 0.00 0.00 0.00 84 1016.1
20260901151627 18 223 0.0 1.6 0.00 0.00 0.00 84 1016.1
20260901151128 18 223 0.0 4.8 0.00 0.00 0.00 84 1016.1
20260901150858 18 223 1.6 4.8 0.00 0.00 0.00 83 1016.0
20260901150125 18 223 3.2 8.0 0.00 0.00 0.00 83 1015.9
20260901145623 18 223 3.2 8.0 0.00 0.00 0.00 83 1016.0
20260901145354 18 223 3.2 8.0 0.00 0.00 0.00 84 1016.0
20260901144120 18 223 3.2 8.0 0.00 0.00 0.00 83 1016.0
20260901143619 18 223 3.2 8.0 0.00 0.00 0.00 83 1015.9
20260901143118 18 223 3.2 6.4 0.00 0.00 0.00 84 1015.9
20260901142619 18 223 1.6 6.4 0.00 0.00 0.00 84 1015.8
20260901142116 17 223 1.6 4.8 0.00 0.00 0.00 84 1015.6
20260901141618 17 223 1.6 4.8 0.00 0.00 0.00 84 1015.6
20260901141117 17 223 1.6 4.8 0.00 0.00 0.00 84 1015.5
20260901140617 17 223 1.6 4.8 0.00 0.00 0.00 84 1015.4
20260901140122 17 223 1.6 3.2 0.00 0.00 0.00 84 1015.3
20260901135613 17 223 1.6 3.2 0.00 0.00 0.00 85 1015.2
20260901135112 17 223 0.0 3.2 0.00 0.00 0.00 85 1015.2
20260901134614 17 223 0.0 3.2 0.00 0.00 0.00 84 1015.2
20260901134342 17 223 1.6 4.8 0.00 0.00 0.00 85 1015.1
20260901133608 17 223 1.6 4.8 0.00 0.00 0.00 85 1015.0
20260901133110 17 223 1.6 4.8 0.00 0.00 0.00 85 1014.9
20260901132608 17 223 1.6 4.8 0.00 0.00 0.00 85 1014.8
20260901132110 17 223 0.0 4.8 0.00 0.00 0.00 85 1014.8
20260901131850 17 223 0.0 0.0 0.00 0.00 0.00 85 1014.9
20260901131107 17 223 0.0 0.0 0.00 0.00 0.00 85 1014.8
20260901130605 17 223 0.0 0.0 0.00 0.00 0.00 85 1014.8
20260901130118 17 223 0.0 0.0 0.00 0.00 0.00 84 1014.7
20260901125603 17 223 0.0 0.0 0.00 0.00 0.00 84 1014.7
20260901125100 18 223 0.0 0.0 0.00 0.00 0.00 85 1014.7
20260901124601 17 223 0.0 0.0 0.00 0.00 0.00 84 1014.7
20260901124101 17 223 0.0 0.0 0.00 0.00 0.00 84 1014.7
20260901123557 18 223 0.0 0.0 0.00 0.00 0.00 85 1014.7
20260901123058 18 223 0.0 0.0 0.00 0.00 0.00 84 1014.7
20260901122554 18 223 0.0 0.0 0.00 0.00 0.00 84 1014.7
20260901122325 18 223 0.0 0.0 0.00 0.00 0.00 84 1014.7
20260901121553 18 223 0.0 3.2 0.00 0.00 0.00 84 1014.8
20260901121051 18 223 0.0 3.2 0.00 0.00 0.00 84 1014.7
20260901120821 18 223 0.0 3.2 0.00 0.00 0.00 84 1014.7
20260901120100 18 223 0.0 3.2 0.00 0.00 0.00 84 1014.8
20260901115546 18 223 0.0 3.2 0.00 0.00 0.00 84 1014.8
20260901115318 18 223 0.0 3.2 0.00 0.00 0.00 84 1014.9
20260901114547 18 223 0.0 4.8 0.00 0.00 0.00 84 1014.9
20260901113545 18 223 0.0 3.2 0.00 0.00 0.00 84 1014.9
20260901113045 18 223 1.6 4.8 0.00 0.00 0.00 84 1015.0
20260901112544 18 223 1.6 6.4 0.00 0.00 0.00 84 1015.0
20260901112041 18 223 3.2 6.4 0.00 0.00 0.00 83 1014.9
20260901111541 18 223 3.2 6.4 0.00 0.00 0.00 83 1015.0
20260901110536 18 223 1.6 6.4 0.00 0.00 0.00 83 1015.0
20260901110038 18 223 1.6 4.8 0.00 0.00 0.00 83 1015.0
20260901105534 18 223 0.0 4.8 0.00 0.00 0.00 83 1015.1
20260901105033 18 223 0.0 3.2 0.00 0.00 0.00 83 1015.0
20260901104533 18 223 1.6 4.8 0.00 0.00 0.00 83 1015.0
20260901104027 18 223 1.6 4.8 0.00 0.00 0.00 82 1014.9
20260901103525 18 223 1.6 3.2 0.00 0.00 0.00 83 1015.0
20260901103025 18 223 1.6 3.2 0.00 0.00 0.00 82 1014.9
20260901102524 18 223 0.0 3.2 0.00 0.00 0.00 82 1014.9
20260901102252 18 223 0.0 3.2 0.00 0.00 0.00 82 1014.9
20260901101521 18 223 0.0 3.2 0.00 0.00 0.00 82 1015.0
20260901101017 18 223 1.6 4.8 0.00 0.00 0.00 82 1014.8
20260901100531 18 223 1.6 4.8 0.00 0.00 0.00 82 1014.9
20260901100017 18 223 1.6 3.2 0.00 0.00 0.00 82 1015.1
20260901095516 18 223 0.0 3.2 0.00 0.00 0.00 81 1015.0
20260901095248 18 223 0.0 1.6 0.00 0.00 0.00 81 1015.0
20260901094517 18 223 0.0 1.6 0.00 0.00 0.00 81 1015.0
20260901094246 18 223 0.0 3.2 0.00 0.00 0.00 80 1015.0
20260901093514 18 223 0.0 3.2 0.00 0.00 0.00 81 1014.9
20260901093244 19 223 0.0 3.2 0.00 0.00 0.00 80 1014.9
20260901092512 19 223 0.0 3.2 0.00 0.00 0.00 80 1014.9
20260901092009 19 223 1.6 3.2 0.00 0.00 0.00 80 1014.9
20260901091509 19 223 1.6 6.4 0.00 0.00 0.00 80 1014.9
20260901091237 19 223 1.6 6.4 0.00 0.00 0.00 80 1014.9
20260901090506 19 223 1.6 6.4 0.00 0.00 0.00 80 1014.8
20260901090006 19 223 1.6 4.8 0.00 0.00 0.00 80 1014.8
20260901085505 19 223 1.6 4.8 0.00 0.00 0.00 79 1014.8
20260901085236 19 223 1.6 4.8 0.00 0.00 0.00 79 1014.8
20260901084503 19 223 1.6 4.8 0.00 0.00 0.00 79 1014.8
20260901084233 19 223 1.6 6.4 0.00 0.00 0.00 78 1014.9
20260901083503 19 223 1.6 6.4 0.00 0.00 0.00 78 1014.9
20260901083003 19 223 1.6 6.4 0.00 0.00 0.00 78 1014.9
20260901082503 20 223 1.6 6.4 0.00 0.00 0.00 78 1014.9
20260901082002 20 223 1.6 4.8 0.00 0.00 0.00 77 1014.8
20260901081458 20 223 1.6 4.8 0.00 0.00 0.00 77 1014.8
20260901081000 20 223 3.2 4.8 0.00 0.00 0.00 77 1014.8
20260901080456 20 223 3.2 6.4 0.00 0.00 0.00 76 1014.8
20260901080228 20 223 3.2 6.4 0.00 0.00 0.00 76 1014.9
20260901075724 20 223 3.2 8.0 0.00 0.00 0.00 76 1014.9
20260901075225 20 223 3.2 8.0 0.00 0.00 0.00 75 1015.0
20260901074453 20 223 4.8 8.0 0.00 0.00 0.00 75 1015.0
20260901074217 20 223 4.8 9.7 0.00 0.00 0.00 74 1015.0
20260901073445 20 223 4.8 9.7 0.00 0.00 0.00 74 1014.9
20260901072942 20 223 4.8 9.7 0.00 0.00 0.00 73 1014.9
20260901072445 21 223 4.8 9.7 0.00 0.00 0.00 73 1014.8
20260901071941 21 223 4.8 8.0 0.00 0.00 0.00 72 1014.9
20260901071442 21 223 4.8 8.0 0.00 0.00 0.00 72 1014.7
20260901070940 21 223 4.8 8.0 0.00 0.00 0.00 72 1014.7
20260901070453 21 223 3.2 6.4 0.00 0.00 0.00 71 1014.8
20260901065942 21 223 3.2 6.4 0.00 0.00 0.00 71 1014.8
20260901065435 21 223 3.2 4.8 0.00 0.00 0.00 71 1014.8
20260901064936 21 223 3.2 6.4 0.00 0.00 0.00 70 1014.7
20260901064433 21 223 1.6 6.4 0.00 0.00 0.00 69 1014.7
20260901063934 21 223 1.6 4.8 0.00 0.00 0.00 70 1014.7
20260901063434 21 223 1.6 4.8 0.00 0.00 0.00 70 1014.6
20260901062935 21 223 1.6 4.8 0.00 0.00 0.00 70 1014.7
20260901062433 21 223 3.2 4.8 0.00 0.00 0.00 70 1014.7
20260901062200 21 223 3.2 4.8 0.00 0.00 0.00 69 1014.7
20260901061428 21 223 3.2 4.8 0.00 0.00 0.00 69 1014.7
20260901060927 21 223 3.2 8.0 0.00 0.00 0.00 69 1014.7